Time,TemperatureF,DewpointF,PressureIn,WindDirection,WindDirectionDegrees,WindSpeedMPH,WindSpeedGustMPH,Humidity,HourlyPrecipIn,Conditions,Clouds,dailyrainin,SoftwareType,DateUTC
2013-06-28 00:01:00,75.6,69.7,29.38,WSW,248,7.8,7.8,82,0.00,,---,0.00,VWS V14.00,2013-06-28 04:01:00,
2013-06-28 00:03:00,75.6,69.3,29.38,NW,315,6.3,6.3,81,0.00,,---,0.00,VWS V14.00,2013-06-28 04:03:00,
2013-06-28 00:04:00,75.6,69.3,29.38,WSW,248,5.4,6.3,81,0.00,,---,0.00,VWS V14.00,2013-06-28 04:04:00,
2013-06-28 00:09:00,75.4,69.2,29.38,WNW,292,7.2,7.2,81,0.00,,---,0.00,VWS V14.00,2013-06-28 04:09:00,
2013-06-28 00:12:00,75.4,69.2,29.38,WSW,248,2.5,4.3,81,0.00,,---,0.00,VWS V14.00,2013-06-28 04:12:00,
2013-06-28 00:15:00,75.4,69.2,29.38,WSW,248,3.1,4.0,81,0.00,,---,0.00,VWS V14.00,2013-06-28 04:15:00,
2013-06-28 00:20:00,75.4,69.2,29.38,WNW,292,6.3,6.3,81,0.00,,---,0.00,VWS V14.00,2013-06-28 04:20:00,
2013-06-28 00:25:00,75.4,69.2,29.38,West,270,2.0,5.8,81,0.00,,---,0.00,VWS V14.00,2013-06-28 04:25:00,
2013-06-28 00:30:00,75.4,69.2,29.38,WSW,248,6.3,6.3,81,0.00,,---,0.00,VWS V14.00,2013-06-28 04:30:00,
2013-06-28 00:35:00,75.4,69.2,29.38,SW,225,1.3,2.7,81,0.00,,---,0.00,VWS V14.00,2013-06-28 04:35:00,
2013-06-28 00:40:00,75.4,69.2,29.38,WSW,248,0.0,2.0,81,0.00,,---,0.00,VWS V14.00,2013-06-28 04:40:00,
2013-06-28 00:45:00,75.4,69.2,29.38,WSW,248,1.6,5.6,81,0.00,,---,0.00,VWS V14.00,2013-06-28 04:45:00,
2013-06-28 00:50:00,75.4,68.8,29.35,SSW,202,2.2,2.9,80,0.00,,---,0.00,VWS V14.00,2013-06-28 04:50:00,
2013-06-28 00:55:00,75.4,68.8,29.35,WSW,248,1.6,2.7,80,0.00,,---,0.00,VWS V14.00,2013-06-28 04:55:00,
2013-06-28 01:01:00,75.2,68.6,29.35,SSW,202,1.1,3.4,80,0.00,,---,0.00,VWS V14.00,2013-06-28 05:01:00,
2013-06-28 01:06:00,75.2,68.6,29.35,SSW,202,2.5,2.5,80,0.00,,---,0.00,VWS V14.00,2013-06-28 05:06:00,
2013-06-28 01:11:00,75.4,68.8,29.35,SSE,158,2.0,2.7,80,0.00,,---,0.00,VWS V14.00,2013-06-28 05:11:00,
2013-06-28 01:17:00,75.4,68.8,29.35,SW,225,1.1,2.5,80,0.00,,---,0.00,VWS V14.00,2013-06-28 05:17:00,
2013-06-28 01:22:00,75.4,68.8,29.35,SSW,202,0.0,2.2,80,0.00,,---,0.00,VWS V14.00,2013-06-28 05:22:00,
2013-06-28 01:27:00,75.2,68.6,29.35,WSW,248,2.2,2.2,80,0.00,,---,0.00,VWS V14.00,2013-06-28 05:27:00,
2013-06-28 01:32:00,75.2,68.6,29.35,SSW,202,2.5,2.5,80,0.00,,---,0.00,VWS V14.00,2013-06-28 05:32:00,
2013-06-28 01:38:00,75.2,69.0,29.35,WSW,248,2.0,2.7,81,0.00,,---,0.00,VWS V14.00,2013-06-28 05:38:00,
2013-06-28 01:43:00,75.2,69.0,29.35,SSW,202,3.1,3.1,81,0.00,,---,0.00,VWS V14.00,2013-06-28 05:43:00,
2013-06-28 01:48:00,75.0,69.2,29.35,SSE,158,2.0,2.5,82,0.00,,---,0.00,VWS V14.00,2013-06-28 05:48:00,
2013-06-28 01:53:00,75.0,69.2,29.35,SSW,202,2.9,2.9,82,0.00,,---,0.00,VWS V14.00,2013-06-28 05:53:00,
2013-06-28 01:58:00,75.0,69.5,29.35,WSW,248,1.1,1.1,83,0.00,,---,0.00,VWS V14.00,2013-06-28 05:58:00,
2013-06-28 02:04:00,75.0,69.5,29.35,SW,225,2.0,2.0,83,0.00,,---,0.00,VWS V14.00,2013-06-28 06:04:00,
2013-06-28 02:09:00,75.0,69.5,29.35,WSW,248,2.7,2.7,83,0.00,,---,0.00,VWS V14.00,2013-06-28 06:09:00,
2013-06-28 02:14:00,75.0,69.5,29.35,WSW,248,2.0,2.0,83,0.00,,---,0.00,VWS V14.00,2013-06-28 06:14:00,
2013-06-28 02:19:00,75.0,69.5,29.35,SSW,202,0.0,2.0,83,0.00,,---,0.00,VWS V14.00,2013-06-28 06:19:00,
2013-06-28 02:24:00,75.0,69.5,29.35,SW,225,2.0,3.4,83,0.00,,---,0.00,VWS V14.00,2013-06-28 06:24:00,
2013-06-28 02:30:00,74.8,69.3,29.35,WSW,248,2.7,2.7,83,0.00,,---,0.00,VWS V14.00,2013-06-28 06:30:00,
2013-06-28 02:35:00,74.8,69.3,29.35,West,270,5.8,5.8,83,0.00,,---,0.00,VWS V14.00,2013-06-28 06:35:00,
2013-06-28 02:40:00,74.8,69.3,29.35,West,270,3.1,3.1,83,0.00,,---,0.00,VWS V14.00,2013-06-28 06:40:00,
2013-06-28 02:46:00,74.7,69.5,29.35,WSW,248,2.7,2.9,84,0.00,,---,0.00,VWS V14.00,2013-06-28 06:46:00,
2013-06-28 02:52:00,74.7,69.2,29.35,West,270,4.0,4.0,83,0.00,,---,0.00,VWS V14.00,2013-06-28 06:52:00,
2013-06-28 02:57:00,74.7,69.5,29.35,WSW,248,0.0,2.9,84,0.00,,---,0.00,VWS V14.00,2013-06-28 06:57:00,
2013-06-28 03:02:00,74.7,69.9,29.35,SW,225,2.5,3.6,85,0.00,,---,0.00,VWS V14.00,2013-06-28 07:02:00,
2013-06-28 03:08:00,74.5,69.3,29.35,West,270,2.5,2.5,84,0.00,,---,0.00,VWS V14.00,2013-06-28 07:08:00,
2013-06-28 03:14:00,74.5,69.7,29.32,WSW,248,5.8,5.8,85,0.00,,---,0.00,VWS V14.00,2013-06-28 07:14:00,
2013-06-28 03:19:00,74.5,69.3,29.32,WSW,248,1.3,2.5,84,0.00,,---,0.00,VWS V14.00,2013-06-28 07:19:00,
2013-06-28 03:24:00,74.5,69.3,29.32,West,270,2.7,3.6,84,0.00,,---,0.00,VWS V14.00,2013-06-28 07:24:00,
2013-06-28 03:29:00,74.3,69.2,29.32,WSW,248,2.7,8.5,84,0.00,,---,0.00,VWS V14.00,2013-06-28 07:29:00,
2013-06-28 03:34:00,74.3,69.2,29.32,NW,315,1.1,3.1,84,0.00,,---,0.00,VWS V14.00,2013-06-28 07:34:00,
2013-06-28 03:40:00,74.5,69.3,29.32,WSW,248,2.0,3.1,84,0.00,,---,0.00,VWS V14.00,2013-06-28 07:40:00,
2013-06-28 03:46:00,74.5,69.3,29.32,WSW,248,4.9,4.9,84,0.00,,---,0.00,VWS V14.00,2013-06-28 07:46:00,
2013-06-28 03:51:00,74.5,69.3,29.32,NW,315,5.4,5.4,84,0.00,,---,0.00,VWS V14.00,2013-06-28 07:51:00,
2013-06-28 03:56:00,74.5,69.3,29.32,WSW,248,6.5,6.5,84,0.00,,---,0.00,VWS V14.00,2013-06-28 07:56:00,
2013-06-28 04:01:00,74.5,69.3,29.32,WSW,248,2.2,5.8,84,0.00,,---,0.00,VWS V14.00,2013-06-28 08:01:00,
2013-06-28 04:06:00,74.5,69.3,29.32,WSW,248,1.3,2.7,84,0.00,,---,0.00,VWS V14.00,2013-06-28 08:06:00,
2013-06-28 04:11:00,74.5,69.3,29.32,WSW,248,2.5,2.5,84,0.00,,---,0.00,VWS V14.00,2013-06-28 08:11:00,
2013-06-28 04:16:00,74.3,69.2,29.32,SW,225,2.7,2.7,84,0.00,,---,0.00,VWS V14.00,2013-06-28 08:16:00,
2013-06-28 04:21:00,74.3,69.2,29.32,West,270,3.1,3.1,84,0.00,,---,0.00,VWS V14.00,2013-06-28 08:21:00,
2013-06-28 04:27:00,74.1,69.3,29.32,SSW,202,2.7,5.6,85,0.00,,---,0.00,VWS V14.00,2013-06-28 08:27:00,
2013-06-28 04:32:00,74.1,69.3,29.32,WSW,248,1.3,2.7,85,0.00,,---,0.00,VWS V14.00,2013-06-28 08:32:00,
2013-06-28 04:38:00,73.9,69.2,29.32,WSW,248,3.6,3.6,85,0.00,,---,0.00,VWS V14.00,2013-06-28 08:38:00,
2013-06-28 04:43:00,73.9,69.5,29.32,West,270,3.8,4.3,86,0.00,,---,0.00,VWS V14.00,2013-06-28 08:43:00,
2013-06-28 04:48:00,73.9,69.5,29.32,SSW,202,2.2,2.2,86,0.00,,---,0.00,VWS V14.00,2013-06-28 08:48:00,
2013-06-28 04:53:00,73.9,69.5,29.32,WSW,248,6.0,6.0,86,0.00,,---,0.00,VWS V14.00,2013-06-28 08:53:00,
2013-06-28 04:58:00,73.8,69.3,29.32,SSW,202,1.6,2.5,86,0.00,,---,0.00,VWS V14.00,2013-06-28 08:58:00,
2013-06-28 05:03:00,73.8,69.3,29.32,WSW,248,0.0,1.3,86,0.00,,---,0.00,VWS V14.00,2013-06-28 09:03:00,
2013-06-28 05:09:00,73.6,69.5,29.32,South,180,1.6,2.2,87,0.00,,---,0.00,VWS V14.00,2013-06-28 09:09:00,
2013-06-28 05:14:00,73.6,69.5,29.32,SW,225,2.5,2.5,87,0.00,,---,0.00,VWS V14.00,2013-06-28 09:14:00,
2013-06-28 05:19:00,73.6,69.8,29.32,West,270,6.7,6.7,88,0.00,,---,0.00,VWS V14.00,2013-06-28 09:19:00,
2013-06-28 05:25:00,73.6,69.5,29.32,SW,225,0.9,2.0,87,0.00,,---,0.00,VWS V14.00,2013-06-28 09:25:00,
2013-06-28 05:30:00,73.6,69.8,29.32,WSW,248,3.1,3.1,88,0.00,,---,0.00,VWS V14.00,2013-06-28 09:30:00,
2013-06-28 05:35:00,73.6,69.8,29.32,WSW,248,0.0,2.5,88,0.00,,---,0.00,VWS V14.00,2013-06-28 09:35:00,
2013-06-28 05:40:00,73.6,69.8,29.32,WSW,248,1.1,4.3,88,0.00,,---,0.00,VWS V14.00,2013-06-28 09:40:00,
2013-06-28 05:45:00,73.6,69.8,29.32,WSW,248,2.7,3.1,88,0.00,,---,0.00,VWS V14.00,2013-06-28 09:45:00,
2013-06-28 05:50:00,73.6,69.8,29.32,SSW,202,2.0,4.9,88,0.00,,---,0.00,VWS V14.00,2013-06-28 09:50:00,
2013-06-28 05:55:00,73.8,70.0,29.32,WSW,248,2.0,2.0,88,0.00,,---,0.00,VWS V14.00,2013-06-28 09:55:00,
2013-06-28 06:01:00,73.8,70.3,29.32,WSW,248,2.5,3.1,89,0.00,,---,0.00,VWS V14.00,2013-06-28 10:01:00,
2013-06-28 06:06:00,73.6,70.1,29.32,WSW,248,2.5,3.1,89,0.00,,---,0.00,VWS V14.00,2013-06-28 10:06:00,
2013-06-28 06:11:00,73.8,70.3,29.32,WSW,248,4.0,6.3,89,0.00,,---,0.00,VWS V14.00,2013-06-28 10:11:00,
2013-06-28 06:16:00,73.9,70.5,29.32,WSW,248,5.8,5.8,89,0.00,,---,0.00,VWS V14.00,2013-06-28 10:16:00,
2013-06-28 06:21:00,73.9,70.5,29.32,WSW,248,5.6,5.6,89,0.00,,---,0.00,VWS V14.00,2013-06-28 10:21:00,
2013-06-28 06:26:00,74.1,70.7,29.32,West,270,5.6,5.6,89,0.00,,---,0.00,VWS V14.00,2013-06-28 10:26:00,
2013-06-28 06:31:00,74.1,70.7,29.32,West,270,4.7,4.7,89,0.00,,---,0.00,VWS V14.00,2013-06-28 10:31:00,
2013-06-28 06:36:00,74.1,70.7,29.32,NNW,338,3.8,3.8,89,0.00,,---,0.00,VWS V14.00,2013-06-28 10:36:00,
2013-06-28 06:41:00,74.3,70.8,29.32,SW,225,3.6,4.0,89,0.00,,---,0.00,VWS V14.00,2013-06-28 10:41:00,
2013-06-28 06:46:00,74.5,70.7,29.32,NW,315,2.2,2.9,88,0.00,,---,0.00,VWS V14.00,2013-06-28 10:46:00,
2013-06-28 06:51:00,74.5,70.7,29.35,WNW,292,5.8,5.8,88,0.00,,---,0.00,VWS V14.00,2013-06-28 10:51:00,
2013-06-28 06:56:00,74.7,70.9,29.35,WNW,292,7.6,7.6,88,0.00,,---,0.00,VWS V14.00,2013-06-28 10:56:00,
2013-06-28 07:01:00,74.7,70.9,29.35,West,270,5.8,5.8,88,0.00,,---,0.00,VWS V14.00,2013-06-28 11:01:00,
2013-06-28 07:06:00,74.7,70.9,29.35,NNE,22,3.4,5.4,88,0.00,,---,0.00,VWS V14.00,2013-06-28 11:06:00,
2013-06-28 07:11:00,74.8,71.1,29.35,West,270,5.8,5.8,88,0.00,,---,0.00,VWS V14.00,2013-06-28 11:11:00,
2013-06-28 07:16:00,75.0,71.2,29.35,NNW,338,5.4,5.4,88,0.00,,---,0.00,VWS V14.00,2013-06-28 11:16:00,
2013-06-28 07:21:00,75.2,71.1,29.35,WNW,292,5.8,5.8,87,0.00,,---,0.00,VWS V14.00,2013-06-28 11:21:00,
2013-06-28 07:26:00,75.4,71.2,29.35,West,270,3.6,7.4,87,0.00,,---,0.00,VWS V14.00,2013-06-28 11:26:00,
2013-06-28 07:31:00,75.6,71.4,29.35,WSW,248,4.0,4.9,87,0.00,,---,0.00,VWS V14.00,2013-06-28 11:31:00,
2013-06-28 07:36:00,75.7,71.3,29.35,WNW,292,4.9,6.0,86,0.00,,---,0.00,VWS V14.00,2013-06-28 11:36:00,
2013-06-28 07:41:00,75.7,71.3,29.35,WSW,248,3.4,3.4,86,0.00,,---,0.00,VWS V14.00,2013-06-28 11:41:00,
2013-06-28 07:46:00,76.1,71.3,29.35,West,270,3.6,3.8,85,0.00,,---,0.00,VWS V14.00,2013-06-28 11:46:00,
2013-06-28 07:51:00,76.1,71.3,29.32,WNW,292,3.6,3.8,85,0.00,,---,0.00,VWS V14.00,2013-06-28 11:51:00,
2013-06-28 07:56:00,76.3,71.1,29.32,SW,225,2.9,2.9,84,0.00,,---,0.00,VWS V14.00,2013-06-28 11:56:00,
2013-06-28 08:01:00,76.5,71.3,29.32,WSW,248,2.5,3.6,84,0.00,,---,0.00,VWS V14.00,2013-06-28 12:01:00,
2013-06-28 08:06:00,76.6,71.4,29.32,West,270,3.8,6.5,84,0.00,,---,0.00,VWS V14.00,2013-06-28 12:06:00,
2013-06-28 08:11:00,76.8,71.6,29.32,WSW,248,4.7,4.7,84,0.00,,---,0.00,VWS V14.00,2013-06-28 12:11:00,
2013-06-28 08:17:00,77.0,71.1,29.32,WSW,248,2.5,2.5,82,0.00,,---,0.00,VWS V14.00,2013-06-28 12:17:00,
2013-06-28 08:22:00,77.0,71.1,29.32,SW,225,3.6,4.9,82,0.00,,---,0.00,VWS V14.00,2013-06-28 12:22:00,
2013-06-28 08:27:00,77.2,71.3,29.32,WNW,292,4.9,4.9,82,0.00,,---,0.00,VWS V14.00,2013-06-28 12:27:00,
2013-06-28 08:33:00,77.7,71.1,29.32,SSW,202,3.8,5.6,80,0.00,,---,0.00,VWS V14.00,2013-06-28 12:33:00,
2013-06-28 08:38:00,77.7,70.7,29.32,WSW,248,2.7,3.4,79,0.00,,---,0.00,VWS V14.00,2013-06-28 12:38:00,
2013-06-28 08:43:00,77.9,70.9,29.32,WSW,248,3.1,5.8,79,0.00,,---,0.00,VWS V14.00,2013-06-28 12:43:00,
2013-06-28 08:48:00,78.1,70.7,29.32,NW,315,8.1,8.7,78,0.00,,---,0.00,VWS V14.00,2013-06-28 12:48:00,
2013-06-28 08:53:00,78.4,70.2,29.32,North,0,2.9,4.9,76,0.00,,---,0.00,VWS V14.00,2013-06-28 12:53:00,
2013-06-28 08:58:00,79.2,70.2,29.32,WNW,292,5.4,6.5,74,0.00,,---,0.00,VWS V14.00,2013-06-28 12:58:00,
2013-06-28 09:05:00,79.7,69.9,29.32,WSW,248,4.0,7.4,72,0.00,,---,0.00,VWS V14.00,2013-06-28 13:05:00,
2013-06-28 09:10:00,80.4,70.6,29.32,WSW,248,3.1,6.7,72,0.00,,---,0.00,VWS V14.00,2013-06-28 13:10:00,
2013-06-28 09:16:00,81.1,70.8,29.32,WSW,248,4.9,4.9,71,0.00,,---,0.00,VWS V14.00,2013-06-28 13:16:00,
2013-06-28 09:21:00,81.7,70.1,29.32,West,270,2.9,6.5,68,0.00,,---,0.00,VWS V14.00,2013-06-28 13:21:00,
2013-06-28 09:27:00,81.9,69.8,29.32,WSW,248,2.7,9.8,67,0.00,,---,0.00,VWS V14.00,2013-06-28 13:27:00,
2013-06-28 09:32:00,81.9,69.4,29.32,NW,315,3.4,5.4,66,0.00,,---,0.00,VWS V14.00,2013-06-28 13:32:00,
2013-06-28 09:37:00,81.5,69.1,29.32,WNW,292,8.5,8.5,66,0.00,,---,0.00,VWS V14.00,2013-06-28 13:37:00,
2013-06-28 09:43:00,81.1,68.7,29.32,WNW,292,3.6,3.6,66,0.00,,---,0.00,VWS V14.00,2013-06-28 13:43:00,
2013-06-28 09:48:00,81.1,68.7,29.32,NNW,338,2.7,3.4,66,0.00,,---,0.00,VWS V14.00,2013-06-28 13:48:00,
2013-06-28 09:53:00,80.6,68.6,29.32,WNW,292,5.6,5.6,67,0.00,,---,0.00,VWS V14.00,2013-06-28 13:53:00,
2013-06-28 09:58:00,80.8,68.8,29.32,West,270,7.4,7.4,67,0.00,,---,0.00,VWS V14.00,2013-06-28 13:58:00,
2013-06-28 10:03:00,81.0,67.2,29.32,WSW,248,8.1,8.1,63,0.00,,---,0.00,VWS V14.00,2013-06-28 14:03:00,
2013-06-28 10:08:00,82.0,68.7,29.32,WSW,248,8.1,8.1,64,0.00,,---,0.00,VWS V14.00,2013-06-28 14:08:00,
2013-06-28 10:13:00,84.2,70.2,29.32,WSW,248,6.5,6.5,63,0.00,,---,0.00,VWS V14.00,2013-06-28 14:13:00,
2013-06-28 10:18:00,85.8,70.8,29.32,WSW,248,7.2,7.2,61,0.00,,---,0.00,VWS V14.00,2013-06-28 14:18:00,
2013-06-28 10:23:00,86.0,69.5,29.32,WSW,248,3.8,5.6,58,0.00,,---,0.00,VWS V14.00,2013-06-28 14:23:00,
2013-06-28 10:28:00,85.8,67.8,29.32,NNW,338,4.7,7.6,55,0.00,,---,0.00,VWS V14.00,2013-06-28 14:28:00,
2013-06-28 10:33:00,85.1,68.7,29.29,WNW,292,4.9,4.9,58,0.00,,---,0.00,VWS V14.00,2013-06-28 14:33:00,
2013-06-28 10:38:00,85.8,68.3,29.29,WSW,248,5.6,5.6,56,0.00,,---,0.00,VWS V14.00,2013-06-28 14:38:00,
2013-06-28 10:43:00,86.0,70.5,29.29,WSW,248,3.1,3.1,60,0.00,,---,0.00,VWS V14.00,2013-06-28 14:43:00,
2013-06-28 10:49:00,86.9,69.3,29.29,WSW,248,3.4,5.4,56,0.00,,---,0.00,VWS V14.00,2013-06-28 14:49:00,
2013-06-28 10:54:00,86.9,68.8,29.29,WNW,292,4.0,6.3,55,0.00,,---,0.00,VWS V14.00,2013-06-28 14:54:00,
2013-06-28 10:59:00,87.4,69.8,29.29,NW,315,5.4,5.4,56,0.00,,---,0.00,VWS V14.00,2013-06-28 14:59:00,
2013-06-28 11:04:00,88.5,68.7,29.32,West,270,15.2,15.2,52,0.00,,---,0.00,VWS V14.00,2013-06-28 15:04:00,
2013-06-28 11:09:00,89.4,68.9,29.32,SW,225,5.4,9.0,51,0.00,,---,0.00,VWS V14.00,2013-06-28 15:09:00,
2013-06-28 11:14:00,87.8,68.0,29.32,West,270,8.7,8.7,52,0.00,,---,0.00,VWS V14.00,2013-06-28 15:14:00,
2013-06-28 11:19:00,87.4,67.7,29.32,West,270,3.6,4.9,52,0.00,,---,0.00,VWS V14.00,2013-06-28 15:19:00,
2013-06-28 11:24:00,87.3,67.5,29.32,WNW,292,7.2,7.2,52,0.00,,---,0.00,VWS V14.00,2013-06-28 15:24:00,
2013-06-28 11:29:00,87.3,66.9,29.32,West,270,3.8,3.8,51,0.00,,---,0.00,VWS V14.00,2013-06-28 15:29:00,
2013-06-28 11:34:00,87.8,68.6,29.32,WSW,248,10.7,10.7,53,0.00,,---,0.00,VWS V14.00,2013-06-28 15:34:00,
2013-06-28 11:40:00,89.2,68.8,29.32,NW,315,7.6,10.1,51,0.00,,---,0.00,VWS V14.00,2013-06-28 15:40:00,
2013-06-28 11:45:00,88.7,68.3,29.32,SW,225,4.9,7.6,51,0.00,,---,0.00,VWS V14.00,2013-06-28 15:45:00,
2013-06-28 11:50:00,88.5,66.9,29.32,West,270,6.5,6.5,49,0.00,,---,0.00,VWS V14.00,2013-06-28 15:50:00,
2013-06-28 11:55:00,90.0,68.2,29.32,SW,225,4.0,6.3,49,0.00,,---,0.00,VWS V14.00,2013-06-28 15:55:00,
2013-06-28 12:00:00,89.2,66.4,29.32,West,270,2.7,5.4,47,0.00,,---,0.00,VWS V14.00,2013-06-28 16:00:00,
2013-06-28 12:06:00,89.6,66.1,29.32,West,270,3.6,3.8,46,0.00,,---,0.00,VWS V14.00,2013-06-28 16:06:00,
2013-06-28 12:11:00,90.1,68.4,29.32,WNW,292,6.3,6.3,49,0.00,,---,0.00,VWS V14.00,2013-06-28 16:11:00,
2013-06-28 12:16:00,89.8,67.5,29.32,NW,315,6.3,6.3,48,0.00,,---,0.00,VWS V14.00,2013-06-28 16:16:00,
2013-06-28 12:21:00,90.7,67.1,29.32,WNW,292,3.1,5.6,46,0.00,,---,0.00,VWS V14.00,2013-06-28 16:21:00,
2013-06-28 12:26:00,90.7,68.3,29.32,NW,315,3.8,6.5,48,0.00,,---,0.00,VWS V14.00,2013-06-28 16:26:00,
2013-06-28 12:31:00,90.0,67.7,29.32,West,270,4.3,4.3,48,0.00,,---,0.00,VWS V14.00,2013-06-28 16:31:00,
2013-06-28 12:36:00,91.0,69.2,29.32,WNW,292,4.3,6.5,49,0.00,,---,0.00,VWS V14.00,2013-06-28 16:36:00,
2013-06-28 12:41:00,90.7,68.3,29.32,WSW,248,8.7,8.7,48,0.00,,---,0.00,VWS V14.00,2013-06-28 16:41:00,
2013-06-28 12:47:00,89.6,66.7,29.32,West,270,8.1,8.5,47,0.00,,---,0.00,VWS V14.00,2013-06-28 16:47:00,
2013-06-28 12:52:00,91.8,69.9,29.32,SSW,202,2.9,3.6,49,0.00,,---,0.00,VWS V14.00,2013-06-28 16:52:00,
2013-06-28 12:57:00,92.1,68.4,29.32,WSW,248,9.8,9.8,46,0.00,,---,0.00,VWS V14.00,2013-06-28 16:57:00,
2013-06-28 13:02:00,92.3,69.2,29.32,WSW,248,5.6,5.8,47,0.00,,---,0.00,VWS V14.00,2013-06-28 17:02:00,
2013-06-28 13:07:00,91.4,67.7,29.32,West,270,6.0,6.0,46,0.00,,---,0.00,VWS V14.00,2013-06-28 17:07:00,
2013-06-28 13:12:00,91.9,68.8,29.32,WSW,248,3.4,3.6,47,0.00,,---,0.00,VWS V14.00,2013-06-28 17:12:00,
2013-06-28 13:17:00,92.5,68.7,29.32,WNW,292,7.4,7.4,46,0.00,,---,0.00,VWS V14.00,2013-06-28 17:17:00,
2013-06-28 13:22:00,93.0,68.6,29.32,NW,315,7.2,7.2,45,0.00,,---,0.00,VWS V14.00,2013-06-28 17:22:00,
2013-06-28 13:27:00,93.0,67.9,29.32,West,270,6.5,6.5,44,0.00,,---,0.00,VWS V14.00,2013-06-28 17:27:00,
2013-06-28 13:32:00,92.8,69.0,29.32,West,270,4.3,4.3,46,0.00,,---,0.00,VWS V14.00,2013-06-28 17:32:00,
2013-06-28 13:37:00,90.1,66.6,29.32,WSW,248,4.7,5.4,46,0.00,,---,0.00,VWS V14.00,2013-06-28 17:37:00,
2013-06-28 13:42:00,90.9,67.2,29.32,WNW,292,5.8,5.8,46,0.00,,---,0.00,VWS V14.00,2013-06-28 17:42:00,
2013-06-28 13:47:00,92.1,67.7,29.32,SW,225,6.0,7.6,45,0.00,,---,0.00,VWS V14.00,2013-06-28 17:47:00,
2013-06-28 13:52:00,90.7,66.4,29.29,WNW,292,5.4,8.1,45,0.00,,---,0.00,VWS V14.00,2013-06-28 17:52:00,
2013-06-28 13:57:00,90.0,67.0,29.29,SW,225,3.8,4.7,47,0.00,,---,0.00,VWS V14.00,2013-06-28 17:57:00,
2013-06-28 14:02:00,90.9,67.2,29.29,North,0,4.9,9.8,46,0.00,,---,0.00,VWS V14.00,2013-06-28 18:02:00,
2013-06-28 14:07:00,89.4,65.9,29.29,West,270,2.9,4.0,46,0.00,,---,0.00,VWS V14.00,2013-06-28 18:07:00,
2013-06-28 14:12:00,90.9,67.9,29.29,WSW,248,2.9,2.9,47,0.00,,---,0.00,VWS V14.00,2013-06-28 18:12:00,
2013-06-28 14:17:00,90.0,65.8,29.29,NW,315,3.8,6.0,45,0.00,,---,0.00,VWS V14.00,2013-06-28 18:17:00,
2013-06-28 14:22:00,91.4,67.1,29.29,West,270,7.2,7.2,45,0.00,,---,0.00,VWS V14.00,2013-06-28 18:22:00,
2013-06-28 14:27:00,91.4,67.7,29.29,West,270,6.3,7.4,46,0.00,,---,0.00,VWS V14.00,2013-06-28 18:27:00,
2013-06-28 14:33:00,91.2,66.9,29.29,West,270,5.8,8.1,45,0.00,,---,0.00,VWS V14.00,2013-06-28 18:33:00,
2013-06-28 14:38:00,90.5,66.9,29.29,NW,315,5.6,5.6,46,0.00,,---,0.00,VWS V14.00,2013-06-28 18:38:00,
2013-06-28 14:43:00,89.2,66.4,29.29,NW,315,2.7,6.0,47,0.00,,---,0.00,VWS V14.00,2013-06-28 18:43:00,
2013-06-28 14:49:00,90.0,66.4,29.29,WSW,248,5.8,5.8,46,0.00,,---,0.00,VWS V14.00,2013-06-28 18:49:00,
2013-06-28 14:55:00,89.2,66.4,29.29,WNW,292,5.6,5.8,47,0.00,,---,0.00,VWS V14.00,2013-06-28 18:55:00,
2013-06-28 15:00:00,89.4,65.3,29.29,WNW,292,7.4,7.4,45,0.00,,---,0.00,VWS V14.00,2013-06-28 19:00:00,
2013-06-28 15:06:00,90.5,66.3,29.29,SW,225,6.5,8.1,45,0.00,,---,0.00,VWS V14.00,2013-06-28 19:06:00,
2013-06-28 15:11:00,90.7,66.4,29.29,WSW,248,4.9,8.1,45,0.00,,---,0.00,VWS V14.00,2013-06-28 19:11:00,
2013-06-28 15:16:00,91.6,67.9,29.29,SW,225,4.0,4.0,46,0.00,,---,0.00,VWS V14.00,2013-06-28 19:16:00,
2013-06-28 15:22:00,91.6,66.6,29.26,West,270,3.6,10.1,44,0.00,,---,0.00,VWS V14.00,2013-06-28 19:22:00,
2013-06-28 15:27:00,91.2,64.9,29.26,NW,315,5.4,10.5,42,0.00,,---,0.00,VWS V14.00,2013-06-28 19:27:00,
2013-06-28 15:33:00,92.1,66.4,29.26,WSW,248,5.4,5.4,43,0.00,,---,0.00,VWS V14.00,2013-06-28 19:33:00,
2013-06-28 15:38:00,92.3,67.2,29.26,North,0,3.1,5.6,44,0.00,,---,0.00,VWS V14.00,2013-06-28 19:38:00,
2013-06-28 15:43:00,92.3,66.6,29.26,WNW,292,4.7,4.7,43,0.00,,---,0.00,VWS V14.00,2013-06-28 19:43:00,
2013-06-28 15:48:00,92.3,64.5,29.26,WSW,248,7.6,7.6,40,0.00,,---,0.00,VWS V14.00,2013-06-28 19:48:00,
2013-06-28 15:53:00,91.9,63.5,29.26,NNW,338,5.8,5.8,39,0.00,,---,0.00,VWS V14.00,2013-06-28 19:53:00,
2013-06-28 15:58:00,92.3,65.9,29.26,WSW,248,3.4,4.9,42,0.00,,---,0.00,VWS V14.00,2013-06-28 19:58:00,
2013-06-28 16:03:00,92.8,67.7,29.23,West,270,12.3,12.3,44,0.00,,---,0.00,VWS V14.00,2013-06-28 20:03:00,
2013-06-28 16:08:00,92.3,65.9,29.23,WSW,248,6.0,7.6,42,0.00,,---,0.00,VWS V14.00,2013-06-28 20:08:00,
2013-06-28 16:13:00,91.9,65.6,29.23,WSW,248,3.4,3.8,42,0.00,,---,0.00,VWS V14.00,2013-06-28 20:13:00,
2013-06-28 16:19:00,92.1,65.8,29.23,SSW,202,3.8,3.8,42,0.00,,---,0.00,VWS V14.00,2013-06-28 20:19:00,
2013-06-28 16:24:00,91.4,65.1,29.23,WNW,292,9.6,9.6,42,0.00,,---,0.00,VWS V14.00,2013-06-28 20:24:00,
2013-06-28 16:29:00,90.7,65.1,29.23,WSW,248,3.1,3.1,43,0.00,,---,0.00,VWS V14.00,2013-06-28 20:29:00,
2013-06-28 16:34:00,90.7,65.1,29.26,WSW,248,2.0,4.3,43,0.00,,---,0.00,VWS V14.00,2013-06-28 20:34:00,
2013-06-28 16:39:00,90.7,67.1,29.26,SSW,202,3.4,3.4,46,0.00,,---,0.00,VWS V14.00,2013-06-28 20:39:00,
2013-06-28 16:44:00,90.7,68.9,29.26,WNW,292,6.7,6.7,49,0.00,,---,0.00,VWS V14.00,2013-06-28 20:44:00,
2013-06-28 16:49:00,89.6,69.1,29.23,SSW,202,2.7,2.7,51,0.00,,---,0.00,VWS V14.00,2013-06-28 20:49:00,
2013-06-28 16:55:00,89.1,69.2,29.23,SW,225,3.1,3.1,52,0.00,,---,0.00,VWS V14.00,2013-06-28 20:55:00,
2013-06-28 17:00:00,88.2,68.9,29.23,SSW,202,2.7,2.7,53,0.00,,---,0.00,VWS V14.00,2013-06-28 21:00:00,
2013-06-28 17:05:00,87.8,69.1,29.23,SSW,202,3.8,3.8,54,0.00,,---,0.00,VWS V14.00,2013-06-28 21:05:00,
2013-06-28 17:10:00,87.6,68.9,29.23,WSW,248,1.6,3.1,54,0.00,,---,0.00,VWS V14.00,2013-06-28 21:10:00,
2013-06-28 17:15:00,86.9,69.3,29.23,WSW,248,2.0,6.3,56,0.00,,---,0.00,VWS V14.00,2013-06-28 21:15:00,
2013-06-28 17:21:00,86.2,69.2,29.23,South,180,3.1,3.1,57,0.00,,---,0.00,VWS V14.00,2013-06-28 21:21:00,
2013-06-28 17:26:00,85.6,68.7,29.23,SSW,202,1.6,4.7,57,0.00,,---,0.00,VWS V14.00,2013-06-28 21:26:00,
2013-06-28 17:31:00,85.3,68.8,29.23,SSW,202,1.3,3.6,58,0.00,,---,0.00,VWS V14.00,2013-06-28 21:31:00,
2013-06-28 17:36:00,84.7,69.3,29.23,SSE,158,2.0,2.0,60,0.00,,---,0.00,VWS V14.00,2013-06-28 21:36:00,
2013-06-28 17:41:00,84.4,69.5,29.23,WNW,292,3.4,3.4,61,0.00,,---,0.00,VWS V14.00,2013-06-28 21:41:00,
2013-06-28 17:47:00,83.8,69.4,29.23,SE,135,2.5,2.5,62,0.00,,---,0.00,VWS V14.00,2013-06-28 21:47:00,
2013-06-28 17:52:00,83.5,69.6,29.26,West,270,3.1,3.1,63,0.00,,---,0.00,VWS V14.00,2013-06-28 21:52:00,
2013-06-28 17:57:00,83.1,69.2,29.26,SSW,202,1.3,2.2,63,0.00,,---,0.00,VWS V14.00,2013-06-28 21:57:00,
2013-06-28 18:02:00,82.6,69.2,29.26,West,270,2.7,2.7,64,0.00,,---,0.00,VWS V14.00,2013-06-28 22:02:00,
2013-06-28 18:08:00,82.4,69.0,29.26,SW,225,2.7,2.7,64,0.00,,---,0.00,VWS V14.00,2013-06-28 22:08:00,
2013-06-28 18:13:00,82.0,69.1,29.26,SSW,202,1.6,2.0,65,0.00,,---,0.00,VWS V14.00,2013-06-28 22:13:00,
2013-06-28 18:18:00,81.9,69.4,29.26,SE,135,0.9,1.1,66,0.00,,---,0.00,VWS V14.00,2013-06-28 22:18:00,
2013-06-28 18:24:00,81.5,69.9,29.26,SW,225,3.1,3.1,68,0.00,,---,0.00,VWS V14.00,2013-06-28 22:24:00,
2013-06-28 18:29:00,81.3,69.8,29.26,West,270,2.5,2.5,68,0.00,,---,0.00,VWS V14.00,2013-06-28 22:29:00,
2013-06-28 18:34:00,81.1,69.2,29.26,WSW,248,0.9,1.6,67,0.00,,---,0.00,VWS V14.00,2013-06-28 22:34:00,
2013-06-28 18:40:00,81.1,69.6,29.26,WSW,248,2.5,3.8,68,0.00,,---,0.00,VWS V14.00,2013-06-28 22:40:00,
2013-06-28 18:45:00,81.1,69.2,29.26,WSW,248,2.5,4.7,67,0.00,,---,0.00,VWS V14.00,2013-06-28 22:45:00,
2013-06-28 18:50:00,81.1,69.2,29.26,WSW,248,0.9,4.7,67,0.00,,---,0.00,VWS V14.00,2013-06-28 22:50:00,
2013-06-28 18:55:00,81.1,69.6,29.26,WSW,248,3.6,3.6,68,0.00,,---,0.00,VWS V14.00,2013-06-28 22:55:00,
2013-06-28 19:00:00,81.1,69.6,29.26,WSW,248,4.7,4.7,68,0.00,,---,0.00,VWS V14.00,2013-06-28 23:00:00,
2013-06-28 19:07:00,81.1,69.6,29.26,WSW,248,2.9,4.3,68,0.00,,---,0.00,VWS V14.00,2013-06-28 23:07:00,
2013-06-28 19:12:00,80.4,69.8,29.26,SSE,158,2.2,2.2,70,0.00,,---,0.00,VWS V14.00,2013-06-28 23:12:00,
2013-06-28 19:17:00,80.4,70.2,29.26,SW,225,1.3,1.6,71,0.00,,---,0.00,VWS V14.00,2013-06-28 23:17:00,
2013-06-28 19:22:00,80.4,70.2,29.26,WSW,248,2.2,3.8,71,0.00,,---,0.00,VWS V14.00,2013-06-28 23:22:00,
2013-06-28 19:28:00,80.2,70.4,29.26,West,270,5.6,5.6,72,0.00,,---,0.00,VWS V14.00,2013-06-28 23:28:00,
2013-06-28 19:33:00,79.9,70.1,29.29,WSW,248,3.8,3.8,72,0.00,,---,0.00,VWS V14.00,2013-06-28 23:33:00,
2013-06-28 19:38:00,79.7,69.5,29.29,WSW,248,1.3,1.3,71,0.00,,---,0.00,VWS V14.00,2013-06-28 23:38:00,
2013-06-28 19:43:00,79.7,69.1,29.29,WNW,292,4.9,4.9,70,0.00,,---,0.00,VWS V14.00,2013-06-28 23:43:00,
2013-06-28 19:49:00,79.5,68.5,29.29,WNW,292,2.5,4.0,69,0.00,,---,0.00,VWS V14.00,2013-06-28 23:49:00,
2013-06-28 19:54:00,79.3,68.7,29.29,West,270,4.7,4.7,70,0.00,,---,0.00,VWS V14.00,2013-06-28 23:54:00,
2013-06-28 20:00:00,79.0,68.8,29.29,SSW,202,3.1,4.0,71,0.00,,---,0.00,VWS V14.00,2013-06-29 00:00:00,
2013-06-28 20:05:00,78.4,69.1,29.29,WNW,292,5.8,5.8,73,0.00,,---,0.00,VWS V14.00,2013-06-29 00:05:00,
2013-06-28 20:10:00,77.7,69.6,29.29,West,270,3.4,6.0,76,0.00,,---,0.00,VWS V14.00,2013-06-29 00:10:00,
2013-06-28 20:15:00,76.6,68.5,29.29,NNW,338,9.2,10.5,76,0.00,,---,0.00,VWS V14.00,2013-06-29 00:15:00,
2013-06-28 20:20:00,75.9,67.4,29.32,WSW,248,3.6,5.4,75,0.00,,---,0.00,VWS V14.00,2013-06-29 00:20:00,
2013-06-28 20:26:00,75.2,67.1,29.32,WSW,248,5.8,5.8,76,0.04,,---,0.04,VWS V14.00,2013-06-29 00:26:00,
2013-06-28 20:31:00,74.8,67.2,29.32,West,270,7.2,7.2,77,0.04,,---,0.04,VWS V14.00,2013-06-29 00:31:00,
2013-06-28 20:37:00,74.3,66.2,29.29,NNW,338,4.3,4.7,76,0.04,,---,0.04,VWS V14.00,2013-06-29 00:37:00,
2013-06-28 20:42:00,74.1,66.1,29.29,WNW,292,2.7,4.9,76,0.04,,---,0.04,VWS V14.00,2013-06-29 00:42:00,
2013-06-28 20:47:00,73.9,65.5,29.29,WSW,248,5.8,6.0,75,0.04,,---,0.04,VWS V14.00,2013-06-29 00:47:00,
2013-06-28 20:52:00,73.8,65.3,29.29,WSW,248,2.7,3.1,75,0.04,,---,0.04,VWS V14.00,2013-06-29 00:52:00,
2013-06-28 20:57:00,73.6,65.6,29.29,WSW,248,4.0,4.0,76,0.04,,---,0.04,VWS V14.00,2013-06-29 00:57:00,
2013-06-28 21:02:00,73.6,65.6,29.29,WSW,248,3.1,3.1,76,0.04,,---,0.04,VWS V14.00,2013-06-29 01:02:00,
2013-06-28 21:07:00,73.6,65.9,29.29,WSW,248,1.3,1.3,77,0.04,,---,0.04,VWS V14.00,2013-06-29 01:07:00,
2013-06-28 21:13:00,73.4,65.8,29.29,WNW,292,3.1,6.0,77,0.04,,---,0.04,VWS V14.00,2013-06-29 01:13:00,
2013-06-28 21:19:00,73.4,66.1,29.29,WSW,248,1.6,2.7,78,0.04,,---,0.04,VWS V14.00,2013-06-29 01:19:00,
2013-06-28 21:24:00,73.6,66.7,29.29,WSW,248,6.3,6.3,79,0.04,,---,0.04,VWS V14.00,2013-06-29 01:24:00,
2013-06-28 21:29:00,73.4,66.1,29.29,SSW,202,2.2,2.2,78,0.00,,---,0.04,VWS V14.00,2013-06-29 01:29:00,
2013-06-28 21:34:00,73.6,66.7,29.29,SSW,202,1.6,2.0,79,0.00,,---,0.04,VWS V14.00,2013-06-29 01:34:00,
2013-06-28 21:39:00,73.6,66.7,29.29,WSW,248,1.3,2.2,79,0.00,,---,0.04,VWS V14.00,2013-06-29 01:39:00,
2013-06-28 21:44:00,73.6,66.7,29.29,West,270,1.3,1.3,79,0.00,,---,0.04,VWS V14.00,2013-06-29 01:44:00,
2013-06-28 21:49:00,73.6,66.7,29.29,WSW,248,0.0,1.3,79,0.00,,---,0.04,VWS V14.00,2013-06-29 01:49:00,
2013-06-28 21:54:00,73.8,66.8,29.29,WSW,248,0.0,1.1,79,0.00,,---,0.04,VWS V14.00,2013-06-29 01:54:00,
2013-06-28 22:00:00,73.8,67.2,29.29,WSW,248,5.4,5.4,80,0.00,,---,0.04,VWS V14.00,2013-06-29 02:00:00,
2013-06-28 22:05:00,73.6,66.7,29.32,WSW,248,3.1,3.1,79,0.00,,---,0.04,VWS V14.00,2013-06-29 02:05:00,
2013-06-28 22:10:00,73.6,66.7,29.32,WSW,248,2.5,2.5,79,0.00,,---,0.04,VWS V14.00,2013-06-29 02:10:00,
2013-06-28 22:15:00,73.6,67.0,29.32,WSW,248,0.9,0.9,80,0.00,,---,0.04,VWS V14.00,2013-06-29 02:15:00,
2013-06-28 22:20:00,73.4,67.2,29.29,SSW,202,1.3,2.2,81,0.00,,---,0.04,VWS V14.00,2013-06-29 02:20:00,
2013-06-28 22:25:00,73.4,67.2,29.29,SW,225,1.6,1.6,81,0.00,,---,0.04,VWS V14.00,2013-06-29 02:25:00,
2013-06-28 22:30:00,73.2,67.1,29.29,SW,225,1.1,1.1,81,0.00,,---,0.04,VWS V14.00,2013-06-29 02:30:00,
2013-06-28 22:35:00,73.0,67.2,29.29,WNW,292,3.4,3.4,82,0.00,,---,0.04,VWS V14.00,2013-06-29 02:35:00,
2013-06-28 22:41:00,73.0,66.9,29.29,WSW,248,1.6,1.6,81,0.00,,---,0.04,VWS V14.00,2013-06-29 02:41:00,
2013-06-28 22:46:00,72.9,67.1,29.29,SSW,202,1.6,1.6,82,0.05,,---,0.09,VWS V14.00,2013-06-29 02:46:00,
2013-06-28 22:51:00,72.9,67.1,29.29,SSE,158,1.6,1.6,82,0.05,,---,0.09,VWS V14.00,2013-06-29 02:51:00,
2013-06-28 22:56:00,72.9,67.1,29.29,WSW,248,2.0,2.0,82,0.05,,---,0.09,VWS V14.00,2013-06-29 02:56:00,
2013-06-28 23:01:00,72.9,67.4,29.29,WSW,248,7.2,7.2,83,0.05,,---,0.09,VWS V14.00,2013-06-29 03:01:00,
2013-06-28 23:06:00,72.9,67.4,29.29,SW,225,0.0,2.5,83,0.05,,---,0.09,VWS V14.00,2013-06-29 03:06:00,
2013-06-28 23:11:00,72.9,67.4,29.29,WSW,248,2.5,2.5,83,0.05,,---,0.09,VWS V14.00,2013-06-29 03:11:00,
2013-06-28 23:16:00,72.9,67.4,29.29,SW,225,1.1,1.1,83,0.05,,---,0.09,VWS V14.00,2013-06-29 03:16:00,
2013-06-28 23:21:00,72.9,67.8,29.29,WSW,248,0.0,0.0,84,0.05,,---,0.09,VWS V14.00,2013-06-29 03:21:00,
2013-06-28 23:26:00,72.9,67.8,29.29,WNW,292,1.6,1.6,84,0.05,,---,0.09,VWS V14.00,2013-06-29 03:26:00,
2013-06-28 23:31:00,72.9,67.4,29.29,WSW,248,4.3,4.3,83,0.05,,---,0.09,VWS V14.00,2013-06-29 03:31:00,
2013-06-28 23:37:00,72.9,67.8,29.29,WNW,292,1.1,1.1,84,0.05,,---,0.09,VWS V14.00,2013-06-29 03:37:00,
2013-06-28 23:43:00,72.9,68.1,29.29,West,270,0.0,0.0,85,0.05,,---,0.09,VWS V14.00,2013-06-29 03:43:00,
2013-06-28 23:48:00,72.7,67.6,29.26,SSW,202,0.0,0.0,84,0.00,,---,0.09,VWS V14.00,2013-06-29 03:48:00,
2013-06-28 23:53:00,72.3,67.2,29.26,SSW,202,0.0,0.0,84,0.00,,---,0.09,VWS V14.00,2013-06-29 03:53:00,
2013-06-28 23:58:00,72.0,67.2,29.26,SSW,202,0.0,0.0,85,0.00,,---,0.09,VWS V14.00,2013-06-29 03:58:00,